GFSSW_500_rhum_138.txt.gz
RH
15 19 21 20 20 21 20 22 24 23 22 22 22 22 22 34 37 37 38 42 48 49 50 52 52 49 47 44 42 42 39 42 43 44 50 37 25 31 33 31 29 28 28 28 26
44 42 48 47 44 42 46 39 40 37 37 33 31 33 35 43 45 44 38 43 44 50 56 56 56 55 53 52 50 48 46 50 49 43 38 42 43 42 37 36 35 34 32 30 29
62 64 63 65 72 73 71 71 65 62 55 48 43 40 44 50 45 49 48 53 52 51 57 60 60 62 60 59 58 57 54 57 54 52 48 49 56 50 45 40 44 37 35 35 34
73 73 83 68 75 76 80 76 70 71 73 70 60 60 58 53 46 57 64 65 62 57 54 55 60 60 62 61 60 56 61 61 58 57 58 54 52 55 55 55 51 46 46 44 40
82 61 55 61 62 58 62 42 27 43 46 60 72 74 74 69 61 72 65 71 72 67 60 51 48 49 50 51 53 54 45 52 52 49 47 50 47 46 54 55 49 49 45 42 43
89 52 54 59 47 58 54 18 14 30 56 75 68 80 86 67 65 81 68 73 80 76 64 56 54 54 50 48 45 45 43 42 43 43 34 35 34 41 41 36 42 48 44 40 37
71 54 77 97 88 43 44 24 9 9 42 9 28 47 58 63 66 67 57 47 44 46 49 52 48 50 47 51 48 48 42 41 36 25 28 29 37 48 41 35 35 39 37 38 36
56 50 65 93 97 68 46 29 11 8 7 7 10 30 17 41 36 43 35 14 21 22 23 35 46 45 38 37 32 32 27 25 25 22 23 23 32 46 48 42 40 39 40 39 35
40 45 48 45 74 94 75 33 14 12 9 8 6 5 4 12 6 6 7 7 12 11 13 17 35 41 36 30 25 23 21 20 19 19 16 13 15 41 46 47 45 34 20 20 32
37 35 37 36 38 83 47 83 75 14 12 10 7 6 5 5 5 5 5 6 7 8 8 11 21 33 37 24 29 30 26 20 16 17 14 16 27 50 56 48 28 26 26 30 33
17 33 42 42 36 27 36 23 13 17 11 13 8 11 8 8 13 9 8 8 7 12 11 8 14 16 15 28 27 30 15 14 14 14 10 24 45 66 53 45 37 35 35 32 30
19 17 16 18 23 19 19 22 20 13 16 49 16 10 8 9 16 11 14 17 14 19 16 12 12 11 25 38 34 21 19 16 14 21 21 40 56 45 37 45 42 37 28 18 19
26 26 23 16 15 15 16 17 16 18 19 17 16 12 13 16 18 14 13 25 20 25 28 19 30 17 40 31 22 26 26 22 33 39 37 38 41 32 36 22 20 14 10 9 8
27 19 21 26 23 19 17 17 19 19 22 76 43 34 29 59 59 30 23 41 40 43 39 37 37 47 42 40 36 30 37 37 42 41 38 29 26 15 39 15 16 22 22 20 17
14 21 16 16 21 24 24 25 24 23 29 59 48 27 30 30 40 35 69 78 63 43 44 53 45 50 51 48 40 41 44 50 46 40 34 11 10 35 12 14 31 36 25 25 22
8 10 11 11 15 15 19 24 26 27 28 22 21 54 54 62 78 83 84 42 36 36 31 54 39 59 51 41 47 49 51 45 30 11 12 39 55 71 18 44 51 19 20 24 35
5 6 8 16 22 14 16 20 30 35 28 28 25 85 53 43 65 94 66 40 20 40 63 60 60 54 52 52 58 58 50 29 9 46 34 92 100 73 54 58 46 38 36 28 34
4 8 7 20 26 22 13 19 44 32 24 26 30 46 54 46 84 90 94 59 30 20 44 38 37 49 57 64 58 48 20 6 7 10 4 36 100 53 51 68 69 48 34 68 56
5 5 4 12 19 27 24 26 35 38 25 31 35 62 94 62 64 91 53 41 30 23 66 79 83 50 68 66 49 19 9 8 5 3 4 69 71 69 97 97 65 52 54 57 76
3 3 3 6 15 37 41 39 48 57 40 36 42 63 76 98 65 80 72 63 43 67 72 64 91 65 67 55 16 7 6 4 4 7 4 15 81 75 79 64 77 71 44 51 77
3 3 3 3 9 36 46 22 29 40 32 34 67 100 60 98 89 93 99 91 85 84 65 63 90 72 57 23 7 7 5 4 4 4 4 6 16 30 66 58 90 56 39 47 73
3 4 3 3 6 33 42 25 40 35 70 71 99 91 100 100 98 100 100 98 100 97 64 72 83 71 13 10 5 4 5 5 4 6 6 6 34 99 62 77 79 51 42 40 61
22 14 3 3 8 38 44 38 47 39 38 32 40 70 100 100 99 86 96 100 100 100 90 84 59 22 10 8 5 6 5 4 2 3 6 11 14 38 51 78 65 58 43 49 52
4 3 4 12 31 37 38 45 50 67 93 38 100 100 100 100 84 100 94 92 100 98 100 68 40 24 14 6 5 4 3 2 4 6 6 20 55 100 99 76 69 61 57 83 71
12 12 16 17 27 32 36 47 91 89 97 90 89 100 100 100 96 92 70 84 97 100 87 20 32 8 6 5 3 3 3 5 8 19 19 26 45 65 98 88 88 79 75 86 77
16 15 22 33 42 42 46 60 64 52 50 93 86 100 100 100 99 100 100 100 100 84 13 20 10 6 5 4 3 4 16 17 29 57 71 38 54 95 95 86 85 78 75 72 71
76 88 85 66 84 98 99 100 100 100 92 100 100 100 89 95 100 100 100 99 89 42 23 9 7 5 4 4 3 23 40 44 62 75 72 76 80 95 96 92 90 82 72 70 73

GFSSW_500_rhum_141.txt.gz
RH
31 21 13 12 13 16 20 19 19 18 19 27 26 25 28 24 24 22 26 30 35 35 37 36 46 52 54 52 50 46 44 43 46 44 38 38 66 24 24 40 41 40 34 32 29
52 62 26 25 29 38 40 44 46 39 39 41 37 36 37 33 32 36 30 38 42 38 38 40 49 61 62 61 57 54 51 52 51 44 39 43 47 47 46 44 47 42 39 37 37
80 74 59 52 55 53 55 53 56 56 49 53 52 52 47 44 38 44 43 46 46 47 52 48 52 62 65 65 65 63 60 58 60 59 51 55 58 57 55 56 54 49 49 48 44
95 92 92 77 72 63 55 61 64 68 65 60 61 63 62 58 53 51 51 49 53 60 59 58 56 55 62 66 64 60 64 63 68 70 64 67 63 63 69 66 56 53 50 50 51
95 97 96 90 79 64 52 53 54 58 61 55 54 65 56 46 67 68 62 57 63 71 68 63 59 57 53 57 63 63 54 60 64 64 56 49 48 52 56 51 51 50 47 48 51
58 94 96 99 85 57 62 54 51 58 47 18 21 27 58 55 78 72 69 64 67 72 66 69 69 61 53 54 52 57 53 51 52 49 43 40 42 41 37 36 37 44 46 40 24
35 50 96 93 95 96 74 93 46 56 35 11 19 61 24 45 74 78 72 70 74 68 56 52 44 47 44 46 42 42 42 45 40 32 28 26 28 30 26 26 30 33 33 30 30
51 53 45 89 94 82 83 96 96 47 41 23 8 19 9 35 37 45 60 70 73 46 15 23 20 18 26 30 26 24 28 28 27 25 21 20 19 21 25 30 13 10 13 22 29
16 26 48 59 65 59 48 68 87 85 66 30 10 7 7 10 12 7 19 14 18 36 16 10 6 7 8 14 21 27 29 26 25 29 22 10 8 12 33 17 7 7 14 36 48
21 16 15 40 46 50 43 40 46 76 81 40 12 9 7 8 7 6 5 5 5 5 5 7 6 6 8 7 21 34 25 28 33 31 22 14 15 34 8 6 5 7 12 21 37
34 33 26 16 22 39 38 34 37 41 91 68 56 24 8 8 9 12 10 8 8 8 9 8 8 10 10 9 12 18 26 29 34 33 25 20 45 27 16 9 14 23 28 33 32
38 36 34 32 26 16 15 21 38 40 42 97 52 38 17 7 6 9 8 10 10 13 12 11 13 12 16 15 14 15 15 27 24 28 28 35 49 36 25 17 22 24 23 21 19
20 27 31 31 29 28 26 18 16 21 25 28 22 25 16 13 9 11 9 10 13 17 15 12 22 16 18 23 18 19 23 24 25 36 35 36 45 40 23 20 23 23 20 15 12
9 11 12 15 21 28 25 27 28 21 22 17 20 27 29 16 13 18 13 16 26 50 45 27 43 32 30 28 28 23 39 28 37 35 36 38 34 31 26 24 21 18 19 18 21
6 7 8 10 11 14 23 26 26 30 34 20 17 17 18 17 34 45 39 37 66 56 44 60 54 47 40 40 38 52 51 47 41 39 31 37 34 28 25 20 20 27 25 37 48
4 5 6 8 10 11 13 22 25 31 34 26 23 17 17 16 20 37 34 23 37 50 66 73 42 27 31 29 48 51 56 46 47 50 35 35 32 25 22 25 33 45 72 80 55
3 3 3 4 9 16 18 17 21 30 27 33 26 25 24 21 24 26 22 37 66 84 80 48 33 31 31 41 48 43 51 57 59 50 42 34 28 17 9 22 46 68 58 46 43
4 3 2 3 6 15 31 36 35 18 19 28 29 27 26 24 24 23 26 53 58 52 87 70 66 54 39 30 41 42 55 60 55 46 28 21 14 6 9 15 29 40 86 65 47
4 4 3 3 4 8 24 40 28 18 15 30 40 43 41 25 27 36 53 61 54 88 100 92 82 39 26 55 65 61 66 54 45 18 12 9 9 8 12 22 39 72 63 51 61
5 5 4 4 3 5 13 24 27 16 24 24 45 26 39 49 30 49 48 45 79 83 80 97 86 58 57 62 79 71 61 41 21 12 6 4 4 4 6 8 16 48 67 70 75
7 5 3 3 4 5 6 8 14 20 30 42 73 75 42 34 35 37 59 97 99 81 76 100 96 82 55 68 67 61 62 28 9 6 6 5 4 6 20 24 94 87 61 73 54
5 4 3 3 4 4 3 3 7 19 26 43 61 100 66 52 46 62 95 100 93 99 100 95 100 95 75 76 67 59 32 8 5 5 5 3 3 6 5 7 12 41 54 61 47
10 4 3 3 4 3 3 3 7 11 22 44 55 71 94 99 100 70 100 100 69 99 94 96 99 98 84 68 42 11 8 6 6 4 3 3 4 6 14 18 29 84 81 62 49
8 79 25 26 4 4 4 3 4 14 30 44 49 62 100 100 76 91 95 98 98 100 96 99 100 97 75 58 19 15 9 6 3 4 4 4 6 11 19 22 83 69 89 66 60
93 99 98 55 46 15 5 4 4 14 38 43 52 61 47 53 56 78 99 91 99 100 100 99 99 94 71 26 13 8 5 4 5 10 5 6 17 23 32 51 54 92 87 70 70
64 56 46 18 28 13 4 4 16 29 34 44 50 70 69 64 100 99 100 100 100 100 97 97 60 70 23 18 7 5 3 5 21 8 10 24 52 62 61 60 91 94 78 72 73
42 58 95 11 7 10 17 28 33 35 38 62 71 100 99 90 61 79 100 100 99 100 89 94 86 12 10 11 5 4 5 10 9 8 21 40 62 64 67 80 81 87 82 78 67

GFSSW_500_rhum_144.txt.gz
RH
47 46 20 13 20 42 39 9 8 11 14 13 15 20 21 26 31 29 25 26 26 26 26 27 33 38 42 40 47 53 55 52 47 46 39 33 30 28 26 26 29 46 43 33 31
86 82 59 36 42 49 50 17 18 28 29 26 23 25 35 40 38 36 34 35 33 31 35 35 37 40 47 50 52 61 63 59 55 52 53 51 49 47 49 52 52 54 46 46 44
97 91 86 80 67 58 53 30 42 44 40 38 38 40 40 49 52 47 44 43 39 36 43 42 42 46 51 56 54 64 69 69 69 62 62 70 74 71 78 76 59 56 53 52 46
98 99 93 78 84 85 86 65 55 51 44 45 42 48 53 58 61 60 58 48 45 45 46 45 51 56 59 54 50 64 73 71 72 70 72 71 74 79 93 77 70 68 54 52 53
91 91 86 84 75 90 97 88 70 56 48 48 44 48 54 66 72 65 60 61 58 57 55 51 61 62 62 58 55 49 55 61 74 79 76 73 77 75 68 68 60 40 37 39 42
59 38 38 59 75 82 92 87 74 58 45 44 48 52 46 48 50 45 52 60 68 66 66 64 66 63 67 66 59 53 50 52 55 56 51 50 59 54 46 41 39 37 36 35 34
56 53 51 36 33 44 85 97 75 54 55 71 59 50 15 32 44 42 76 81 77 75 70 75 64 59 62 53 46 44 47 43 43 49 46 34 29 24 21 19 18 16 16 15 17
12 13 17 43 42 47 58 98 79 62 54 76 61 53 18 15 45 37 59 80 69 67 67 54 24 25 26 16 16 21 26 28 33 31 30 28 27 22 18 16 10 9 10 12 10
18 17 18 14 14 24 43 49 84 88 63 62 69 49 44 14 12 13 39 35 55 59 60 63 31 26 24 23 13 5 10 26 33 30 28 24 22 24 19 13 11 10 12 11 17
34 34 35 32 24 19 16 16 49 64 62 47 70 66 63 35 10 8 9 11 16 20 9 24 20 8 6 6 5 6 10 13 28 30 20 23 23 21 14 11 11 12 13 18 30
39 39 40 41 41 38 28 25 16 37 54 48 39 40 52 71 21 9 8 6 7 7 6 5 6 8 9 11 11 12 11 12 21 31 30 28 22 14 13 14 15 15 13 20 25
39 38 40 40 43 42 39 34 32 26 17 36 39 32 40 60 54 22 10 9 10 13 11 9 9 10 9 9 10 11 15 20 26 31 42 38 19 14 17 20 19 16 18 24 24
13 13 16 19 22 27 37 40 38 37 32 26 20 18 26 41 57 51 23 13 11 9 8 8 9 14 13 12 12 14 16 26 23 44 50 41 20 18 19 24 24 23 26 23 23
6 7 7 7 10 12 13 17 28 32 37 37 28 24 22 25 33 39 38 31 14 15 17 11 13 20 28 27 32 25 37 31 38 38 54 44 33 24 30 31 28 28 26 24 22
5 5 5 5 6 8 10 14 17 22 28 27 31 30 27 22 20 24 30 33 24 18 22 25 28 50 39 38 51 41 42 34 32 37 42 49 39 31 31 28 30 28 25 20 10
3 3 4 4 5 6 9 11 13 20 15 17 18 26 31 28 27 22 19 21 22 21 43 46 43 28 38 61 54 30 25 31 50 57 36 48 39 28 33 38 32 23 14 8 7
2 2 2 2 2 4 5 8 17 14 9 11 17 22 28 32 31 29 26 21 18 19 23 50 46 38 68 61 39 31 33 30 32 34 35 54 42 33 37 28 21 12 8 7 6
4 4 4 4 3 2 3 13 25 7 7 10 12 14 19 26 34 32 30 27 25 22 32 35 40 74 61 55 45 46 45 28 30 42 61 55 44 38 32 18 9 7 7 5 5
7 6 6 6 5 3 3 5 6 6 5 8 20 15 12 13 22 36 33 29 28 27 36 63 68 78 57 72 85 73 60 55 41 61 63 49 43 32 18 11 7 5 4 9 18
7 7 7 7 6 5 4 4 3 3 8 16 18 28 14 12 14 20 33 33 30 55 94 92 82 95 79 81 85 65 69 58 57 60 54 44 23 9 7 6 5 4 4 6 48
8 9 9 7 6 6 5 5 4 3 6 18 16 29 22 30 24 50 81 74 68 51 100 100 98 98 82 76 99 92 68 64 60 54 42 20 13 8 6 6 5 4 5 7 15
9 10 10 6 7 5 4 3 3 3 5 12 23 33 35 33 64 58 71 83 68 95 100 100 98 99 92 100 99 84 70 66 63 36 12 6 12 9 7 4 4 5 12 17 58
11 11 10 5 6 5 5 4 4 4 4 7 14 25 30 70 93 97 86 66 51 53 96 100 97 100 97 97 88 90 89 71 43 9 6 8 11 11 5 4 5 12 19 72 62
13 10 5 4 5 5 6 4 4 5 4 5 10 21 37 68 74 96 100 90 98 88 96 98 100 100 100 100 100 91 61 33 9 9 10 8 6 5 4 6 11 15 37 47 56
10 5 5 7 13 10 30 20 4 4 4 5 8 14 35 59 58 63 83 88 77 97 99 100 100 100 100 99 94 57 63 17 10 4 4 9 5 4 5 16 33 42 42 69 88
6 6 23 90 100 99 79 68 15 5 5 4 5 18 35 44 43 45 60 78 84 90 100 100 100 100 100 100 97 52 20 10 4 4 7 5 5 4 8 35 50 71 93 94 87
7 39 95 87 100 100 21 80 40 7 5 6 8 21 39 51 68 71 61 80 100 100 100 100 100 99 98 82 58 61 12 6 4 8 7 6 4 4 6 43 63 62 59 55 54

GFSSW_500_rhum_147.txt.gz
RH
26 47 54 52 55 48 35 10 13 39 37 32 12 11 14 16 22 21 23 25 30 29 26 25 25 26 27 28 31 42 49 52 58 54 48 45 40 37 33 31 29 30 32 33 38
67 56 57 69 58 60 47 28 20 25 48 39 15 26 33 29 27 31 34 35 36 33 31 31 34 32 33 33 35 42 49 58 63 62 58 55 54 48 48 47 42 44 46 47 48
91 88 74 78 73 88 78 64 58 61 62 31 27 38 40 38 30 39 42 41 44 41 39 39 37 35 35 33 40 52 62 60 62 76 72 72 66 68 70 63 59 60 54 52 55
89 96 90 75 88 85 88 74 62 56 50 38 41 44 44 42 38 43 46 46 48 51 47 42 41 40 41 42 48 55 58 63 70 76 77 78 81 84 67 67 67 70 75 76 74
92 90 97 88 88 93 85 79 66 68 65 72 56 51 47 42 40 40 46 50 54 56 58 52 50 53 51 55 58 64 64 58 57 60 74 82 84 80 71 71 67 58 64 67 58
97 90 88 88 86 77 58 51 69 74 75 70 65 54 44 41 41 39 41 50 47 34 48 58 58 57 57 63 59 63 64 59 56 57 56 67 77 58 54 51 45 44 40 34 33
78 64 58 56 56 56 47 42 53 62 77 85 71 52 51 51 44 38 35 32 36 46 51 59 61 64 63 62 69 68 60 47 44 45 41 56 53 49 43 31 26 24 22 21 20
47 31 21 13 23 34 31 41 39 40 56 83 71 60 65 53 48 31 26 29 32 47 58 65 66 68 61 48 40 32 28 30 32 24 21 29 28 28 24 21 24 24 20 14 12
28 19 16 13 13 13 13 15 17 27 44 54 81 62 63 54 51 43 16 32 23 42 63 66 67 61 20 15 14 16 14 13 13 9 8 15 16 15 16 18 15 16 17 12 11
24 22 21 20 20 22 22 22 21 20 17 20 39 77 67 60 60 51 41 12 13 30 36 50 41 46 57 36 21 9 8 11 7 9 9 11 12 12 12 14 16 20 19 16 14
39 39 41 38 35 35 36 36 36 37 33 25 22 21 46 56 48 56 53 52 10 9 16 12 26 16 29 21 9 9 10 12 11 10 10 10 10 12 12 13 14 17 19 21 20
50 50 51 50 48 44 40 40 41 39 39 41 38 33 20 34 48 43 38 58 43 14 10 7 7 10 7 7 8 9 10 14 14 12 10 12 16 14 14 15 14 18 28 33 32
55 57 56 50 44 39 34 31 30 28 28 31 37 36 34 29 23 33 32 32 48 48 22 10 10 14 12 12 10 10 10 13 15 18 16 18 16 17 21 19 21 31 38 34 30
45 38 29 26 23 20 19 18 17 18 20 19 22 23 29 35 29 27 22 22 41 54 51 24 11 10 9 8 9 10 19 22 24 33 38 36 22 25 19 15 25 30 29 29 27
38 11 10 10 9 9 9 9 10 10 14 17 16 15 18 29 30 29 32 26 38 66 73 57 37 25 15 14 19 27 41 42 38 43 45 41 34 20 20 23 27 26 29 33 32
10 7 5 6 5 6 6 6 7 8 10 13 14 14 15 21 29 32 35 37 38 30 29 33 50 41 27 32 40 56 46 40 52 50 39 36 49 24 24 25 26 27 34 35 32
9 7 5 4 4 3 3 3 3 5 9 8 9 11 13 16 20 28 36 35 32 30 25 25 30 31 28 34 64 49 33 65 54 42 34 33 35 26 27 29 36 37 38 34 26
4 3 3 2 2 2 2 2 2 4 3 3 3 4 6 9 12 16 23 33 39 35 33 30 27 39 38 38 54 90 87 63 56 44 40 47 49 44 42 42 46 46 33 21 15
3 2 2 2 4 5 5 5 4 4 4 4 3 2 2 3 5 11 14 16 23 31 37 36 33 44 58 67 100 85 72 78 78 68 70 70 57 46 50 51 42 27 17 9 6
3 3 2 5 6 7 6 6 7 6 6 6 5 4 3 3 5 10 10 11 11 16 31 40 36 34 63 100 98 90 91 95 86 90 91 77 60 60 50 27 14 10 8 7 7
3 3 4 7 8 7 8 10 11 10 7 6 6 4 4 4 7 8 16 25 23 23 44 44 89 78 72 93 99 100 99 100 100 96 94 82 65 49 36 20 12 10 10 7 4
3 5 6 8 8 8 9 10 12 10 6 5 6 5 5 11 25 28 17 26 46 99 99 84 64 75 95 100 100 99 96 94 98 100 100 96 63 46 30 15 12 16 8 4 3
5 7 8 10 12 13 14 15 12 7 4 6 7 5 5 7 21 47 46 47 75 73 91 98 100 94 63 92 91 81 96 100 100 100 96 96 52 16 11 16 10 5 4 6 10
7 9 10 16 20 25 21 14 8 5 7 6 6 7 6 6 12 23 48 63 83 99 91 77 85 94 99 100 100 99 100 100 100 97 76 43 14 11 15 8 4 4 6 10 31
9 11 14 17 20 26 12 8 6 25 27 8 6 5 6 6 11 41 56 88 99 100 100 99 67 94 100 100 100 100 100 100 100 81 46 24 11 7 7 5 4 3 7 15 26
12 12 15 19 31 24 9 11 98 86 71 21 5 6 6 5 8 14 44 74 65 87 100 100 100 100 76 97 100 100 99 100 89 50 11 5 4 8 6 4 4 3 6 12 35
15 17 22 34 22 8 12 80 76 99 100 22 6 7 5 6 13 33 48 81 71 82 97 90 100 100 93 100 100 94 99 98 43 12 8 5 8 8 5 4 4 4 4 4 4

GFSSW_500_rhum_153.txt.gz
RH
6 5 5 6 7 12 14 20 24 35 39 36 41 37 36 30 12 28 32 30 27 27 18 15 19 21 27 29 28 30 34 34 32 30 31 31 34 40 47 48 47 45 44 44 43
14 8 8 18 20 22 32 32 38 46 38 42 38 43 43 41 38 48 42 37 31 27 24 25 27 30 34 34 34 37 38 37 37 37 37 40 41 38 48 53 51 50 50 48 48
18 11 20 37 38 38 39 42 47 49 58 61 60 59 50 47 45 48 42 36 28 28 31 35 35 36 38 39 41 43 38 38 39 43 45 44 48 44 47 53 52 53 55 53 56
57 38 30 40 47 44 44 60 70 69 71 84 75 67 62 64 53 52 48 40 39 41 35 35 38 40 37 45 46 44 41 40 44 44 46 45 47 50 49 49 54 56 61 68 72
78 83 75 54 49 60 61 60 67 73 73 79 81 72 71 63 60 60 54 41 42 37 32 29 27 31 35 43 49 43 47 47 44 41 42 45 47 46 43 49 54 64 71 77 79
89 76 78 64 59 56 68 60 68 75 85 81 79 76 75 56 60 64 58 50 45 39 35 32 28 25 35 32 35 45 47 47 49 42 40 42 46 46 45 44 51 60 67 73 73
81 83 87 89 75 73 69 69 72 70 91 83 65 64 55 50 58 60 64 52 49 46 41 36 32 28 25 29 39 47 51 48 48 42 43 46 43 48 47 44 46 54 59 59 50
84 98 89 96 86 78 75 68 72 76 78 62 50 49 44 41 52 60 64 59 54 52 45 40 34 30 26 28 36 49 61 58 55 54 50 51 46 46 42 34 28 33 42 36 29
81 95 92 93 87 82 77 69 61 59 56 47 28 35 30 29 34 45 56 64 64 58 51 46 37 33 30 28 26 45 57 62 56 53 47 40 34 35 30 20 16 21 22 19 18
99 93 94 85 87 78 75 74 65 47 38 35 35 26 27 25 22 22 34 60 75 67 59 55 49 27 24 24 31 41 59 61 38 36 26 21 16 14 11 11 12 14 16 15 14
96 100 94 84 79 78 78 77 62 60 52 43 38 32 26 26 30 30 27 24 51 77 65 59 60 58 52 28 13 22 43 60 59 34 22 19 16 13 10 9 10 11 12 11 12
100 97 94 90 87 89 88 76 49 48 44 40 41 40 38 36 37 39 38 36 27 26 42 50 59 55 53 52 46 21 13 25 39 43 49 26 14 12 12 12 12 10 9 9 10
93 97 100 96 92 83 76 53 46 45 48 47 47 44 44 43 40 41 41 40 40 38 29 27 38 47 48 47 53 52 20 13 18 18 20 25 14 13 14 13 10 8 11 17 22
96 99 96 87 65 43 41 41 46 51 52 47 44 43 42 42 39 40 39 39 39 40 37 35 29 32 41 47 48 44 53 27 16 15 12 13 10 12 12 10 12 15 20 25 33
60 50 45 41 44 49 54 56 54 52 50 43 41 41 41 37 34 31 27 26 27 30 36 34 33 30 27 32 46 48 62 55 37 21 15 12 12 7 9 12 22 26 29 36 46
73 74 79 83 84 78 64 60 70 67 56 48 42 35 28 24 22 22 20 19 19 21 24 28 35 36 35 36 41 47 71 83 68 59 34 23 29 10 12 25 39 44 41 48 53
99 97 94 93 96 96 92 89 79 69 56 51 48 43 32 22 20 17 16 14 13 13 14 18 21 25 33 38 41 42 94 100 94 84 61 60 64 26 20 41 46 44 45 54 48
99 98 99 99 100 95 100 95 74 57 52 36 27 15 14 16 16 13 17 13 7 6 6 8 11 12 15 21 32 44 46 68 75 92 77 57 49 46 52 52 52 45 51 54 50
98 100 100 100 99 99 79 72 65 62 44 39 16 18 25 19 14 10 8 8 5 5 5 4 4 4 4 6 13 20 29 57 82 70 60 54 44 52 74 63 54 70 66 61 67
100 100 100 98 98 87 58 52 32 27 15 5 4 7 5 4 5 6 6 7 7 7 6 6 6 6 7 7 12 20 38 55 96 92 96 58 49 49 57 70 80 78 78 79 72
95 94 81 77 66 42 41 37 43 22 4 3 3 4 6 6 9 10 9 10 11 9 6 5 5 6 8 10 17 36 53 71 93 97 94 81 65 66 66 94 95 94 96 87 90
70 60 84 72 42 41 55 41 8 3 3 3 4 7 8 8 9 10 11 14 12 9 4 4 5 4 8 16 30 30 52 90 100 92 91 100 59 65 68 84 100 99 93 96 96
100 99 98 88 72 56 28 14 4 3 3 4 6 8 11 15 16 16 17 15 10 6 4 5 13 14 10 27 95 96 71 77 96 100 98 100 60 100 100 99 100 96 95 100 95
91 89 83 64 27 11 6 4 3 3 5 7 8 16 21 22 22 19 18 11 8 6 5 7 20 41 57 69 64 97 100 100 100 100 96 95 100 100 100 100 95 99 100 97 61
21 22 24 16 6 4 4 3 4 4 6 8 10 19 21 18 20 20 15 35 22 9 6 7 8 46 56 65 94 89 74 95 95 100 100 99 100 100 100 99 100 100 84 18 12
10 8 7 5 5 4 4 4 5 8 9 10 12 17 18 19 23 16 27 47 32 7 6 6 11 49 49 90 100 75 92 100 83 100 100 92 95 100 100 100 100 67 12 15 10
8 7 6 6 5 5 4 5 6 9 10 12 14 19 24 24 20 12 26 42 5 4 6 51 52 73 67 90 99 77 91 100 100 96 100 80 98 98 100 99 100 28 16 18 12

GFSSW_500_rhum_156.txt.gz
RH
33 13 10 8 5 5 7 8 9 16 25 31 31 38 39 40 40 40 38 40 33 37 35 31 27 22 19 18 24 27 27 27 27 31 31 30 30 32 34 41 45 45 45 46 47
47 51 43 46 18 17 9 16 22 22 25 30 36 39 38 39 46 45 44 42 34 37 36 32 30 28 26 29 32 32 33 32 34 36 33 32 33 35 38 41 45 48 49 49 50
46 55 56 54 29 10 20 35 37 38 36 34 42 50 51 63 56 48 44 47 38 39 38 32 34 36 34 38 40 40 39 39 40 37 34 32 35 39 39 39 41 44 47 50 53
43 54 53 58 40 15 23 47 52 50 58 57 49 54 60 71 66 64 58 58 53 46 37 37 38 35 38 46 46 43 44 43 40 38 38 40 43 47 47 49 48 54 59 62 65
45 48 56 58 63 47 41 47 55 63 59 60 57 59 64 68 67 63 58 59 56 54 41 40 33 32 36 43 43 48 49 44 39 36 41 44 46 48 48 48 47 46 49 55 60
62 62 59 60 67 63 59 65 68 64 59 57 64 55 65 66 61 56 55 54 63 56 49 41 37 36 35 39 39 37 36 38 33 38 41 43 44 45 46 49 50 48 46 48 52
70 71 65 58 75 76 74 77 74 70 63 61 61 62 70 60 56 54 49 53 63 61 52 47 44 39 38 36 34 33 33 34 30 36 42 42 36 44 51 52 52 49 45 43 45
84 81 77 73 64 69 79 66 87 68 72 63 67 71 64 53 48 44 40 43 58 66 60 53 49 41 36 32 30 30 41 50 41 47 42 44 40 47 52 52 51 48 43 40 38
87 87 82 78 71 64 56 75 64 82 71 65 61 58 52 40 35 32 28 30 38 57 68 63 58 50 44 38 33 30 37 51 37 52 51 48 39 47 47 48 46 45 36 26 27
92 91 91 85 88 82 76 74 61 74 76 75 62 46 41 37 30 26 26 26 23 25 41 70 70 59 53 48 38 30 30 45 51 40 46 44 40 43 40 29 30 38 29 20 20
87 90 82 83 78 85 88 91 82 71 72 70 71 59 49 41 35 30 27 27 30 30 28 29 70 76 66 61 57 50 29 19 40 34 40 42 41 29 29 22 19 17 18 17 14
93 93 90 84 84 92 92 90 90 75 69 71 66 59 56 46 42 39 38 35 34 36 37 34 27 34 62 65 61 58 52 45 23 19 19 24 31 27 30 25 20 12 13 14 13
99 97 98 95 96 95 98 93 92 86 73 70 64 56 47 46 44 47 44 43 42 39 38 39 38 34 30 31 40 46 49 53 53 44 24 17 16 17 22 30 38 17 14 13 12
97 97 98 92 89 92 90 90 90 87 74 58 55 50 50 51 50 48 46 45 43 42 42 40 38 38 38 33 30 37 44 52 57 66 60 47 30 22 17 17 22 20 15 16 16
97 100 99 100 95 87 87 86 84 65 54 48 45 45 46 45 44 43 41 41 38 37 35 32 34 34 36 39 38 30 28 34 46 62 72 48 53 38 30 21 13 14 16 20 24
98 100 92 87 90 86 75 57 48 54 53 50 50 50 56 58 51 44 34 31 27 26 24 23 24 24 24 26 30 36 37 36 37 42 39 48 74 30 50 32 26 22 29 34 48
99 97 95 98 98 93 76 71 77 81 67 66 69 67 62 59 53 49 43 34 25 22 22 19 16 16 16 18 21 24 29 34 38 41 36 79 84 38 53 50 57 53 61 65 68
97 97 98 97 98 98 94 95 92 75 78 81 76 80 69 55 40 31 24 20 18 19 21 22 20 18 12 10 10 10 13 17 43 54 86 94 39 52 56 70 80 70 54 58 73
85 91 96 98 99 100 96 84 71 70 78 84 81 48 31 25 29 26 24 22 23 20 16 18 12 8 8 6 6 6 6 11 21 20 26 29 28 26 34 39 45 52 62 98 90
100 100 100 98 100 100 96 78 75 82 86 75 35 32 32 24 20 21 23 21 11 8 8 9 11 10 9 7 6 6 8 7 11 14 41 22 21 23 15 28 39 52 59 67 74
100 100 100 99 100 100 85 86 76 85 62 22 12 14 12 7 6 4 8 7 7 8 10 10 10 11 10 9 7 5 4 6 13 28 16 46 57 50 21 44 74 86 82 95 98
100 100 99 100 100 87 85 79 82 45 30 31 22 6 4 3 3 4 5 7 8 10 13 15 14 12 11 9 6 4 5 11 34 45 69 87 56 59 75 92 90 86 85 86 100
100 100 99 100 87 83 85 84 46 28 35 18 4 4 3 3 5 5 7 8 14 19 19 16 14 12 9 10 26 14 22 62 100 88 45 65 64 70 93 91 96 98 100 100 100
100 98 96 90 76 70 85 84 75 59 20 4 4 3 4 4 5 6 10 16 18 20 19 18 17 23 22 12 9 29 56 66 100 98 97 96 62 67 100 98 99 100 100 100 100
100 100 99 92 95 100 96 54 35 12 6 5 4 4 4 5 7 11 15 15 16 20 20 29 35 47 28 10 6 12 51 73 78 68 96 83 93 100 100 100 100 100 100 100 100
67 92 100 100 100 100 95 83 39 6 5 4 4 5 7 7 10 10 12 15 22 22 28 45 47 27 12 7 7 35 44 77 100 83 71 71 72 100 100 95 100 100 96 95 100
40 37 26 24 18 15 14 9 7 6 5 5 5 7 9 12 12 14 18 24 23 23 52 60 19 7 32 33 40 42 63 100 100 98 95 73 85 98 100 94 99 100 95 100 96

GFSSW_500_rhum_159.txt.gz
RH
27 30 29 21 37 25 15 13 9 6 8 10 20 17 16 19 24 28 33 35 37 37 34 30 31 33 31 24 19 19 22 31 60 33 44 25 28 33 34 34 36 40 43 45 45
41 46 36 30 46 51 48 34 32 11 15 22 24 23 20 19 24 25 28 31 35 37 40 38 33 33 32 28 28 28 29 70 44 33 29 31 34 34 34 32 33 36 39 46 50
36 52 50 28 42 54 55 42 27 13 27 36 35 36 38 36 32 40 50 51 49 48 51 45 41 37 33 34 36 38 40 32 40 35 35 36 36 37 35 36 38 42 45 48 51
42 54 48 30 42 53 55 43 19 15 25 34 44 60 58 54 48 49 56 58 56 52 53 51 42 38 39 38 39 41 40 44 40 43 43 39 35 36 39 37 46 45 47 50 55
61 60 49 36 42 53 62 60 42 28 29 38 52 61 58 58 53 58 56 55 52 51 54 56 47 42 40 34 36 38 37 45 39 47 44 40 40 39 38 42 55 52 47 49 51
74 63 52 35 57 64 60 66 61 56 50 48 51 61 61 52 54 52 51 53 51 49 56 59 50 46 37 34 33 29 42 44 36 45 43 35 33 37 39 48 55 55 54 53 53
73 66 62 55 70 76 64 58 68 65 65 58 52 51 58 65 57 56 55 54 48 46 55 62 54 49 44 40 36 31 31 31 32 38 31 36 21 36 30 45 49 51 55 56 53
69 68 74 79 82 74 72 68 60 60 61 61 55 48 48 60 64 61 50 45 43 40 42 54 60 54 50 45 39 36 30 27 28 25 36 40 39 16 36 38 42 49 59 61 58
75 77 71 73 80 78 81 74 69 62 60 58 57 47 46 50 50 52 43 33 30 31 31 35 50 58 57 56 51 46 39 35 30 31 30 39 53 18 32 40 37 43 46 47 48
87 84 84 83 84 72 85 72 73 66 69 62 61 61 48 47 47 43 40 35 28 27 27 26 27 33 49 64 60 58 50 41 34 32 30 31 43 19 35 35 34 37 37 34 30
92 95 96 99 90 90 82 81 79 66 69 65 63 68 61 64 63 53 41 37 34 31 29 29 30 30 34 31 56 65 61 59 54 48 36 26 28 31 21 34 31 32 34 29 20
95 94 94 98 95 91 91 86 87 76 73 81 75 76 60 64 64 64 58 50 43 39 36 35 33 34 33 33 30 37 63 65 62 60 47 46 40 29 24 29 31 38 37 25 20
97 94 94 95 93 95 91 90 91 81 74 83 78 75 75 69 62 60 50 47 45 43 44 43 43 40 38 38 38 34 29 29 37 50 35 47 45 49 46 40 26 21 30 37 36
96 94 95 94 87 96 91 95 96 99 91 77 78 72 74 68 59 60 54 50 49 48 48 44 44 43 40 40 40 38 38 36 33 34 35 48 37 62 94 31 33 36 28 21 24
98 98 100 98 100 97 98 95 98 100 85 70 62 68 65 61 54 50 47 46 45 44 42 38 38 38 38 36 36 35 36 36 38 39 37 29 90 28 67 51 35 42 46 47 36
95 99 98 96 98 96 97 98 97 89 82 69 64 63 56 51 48 48 47 48 50 50 47 41 38 38 32 31 30 27 26 26 28 30 36 32 96 34 78 99 47 25 44 53 54
96 97 95 100 94 100 98 99 95 86 70 66 64 61 60 64 62 62 62 60 56 50 46 42 35 31 28 24 20 18 15 15 16 35 31 28 91 76 85 82 78 48 40 52 66
96 95 95 100 99 100 100 99 92 82 84 77 77 79 85 78 75 70 65 67 60 53 38 33 26 34 34 27 20 15 13 10 15 64 93 99 100 100 100 62 74 71 60 48 44
96 97 94 97 100 100 99 96 89 89 70 80 92 100 100 92 90 81 72 54 44 39 34 30 27 26 28 23 19 14 14 12 12 9 70 13 10 88 45 35 30 35 33 37 36
100 100 99 100 100 100 99 88 96 84 84 100 100 100 99 89 87 76 66 53 37 35 28 20 25 20 17 14 12 11 11 10 46 99 90 83 92 99 100 71 64 93 59 41 39
100 100 98 100 100 100 78 83 82 83 91 99 100 98 100 91 73 52 37 31 28 25 15 10 13 16 13 12 11 13 15 32 70 97 100 100 82 100 100 100 98 100 99 88 100
100 100 100 100 100 97 88 91 69 89 100 100 100 98 79 38 31 22 25 24 28 12 8 7 7 8 10 13 14 13 13 22 80 100 100 100 56 79 76 100 96 83 89 94 100
100 96 100 100 94 93 94 99 86 100 100 100 98 66 27 19 26 21 15 8 6 7 6 7 11 13 12 16 42 56 34 84 100 99 77 81 44 60 71 78 97 91 100 100 100
100 100 100 95 100 99 100 100 100 100 97 79 41 31 23 22 13 18 5 4 4 5 7 13 16 16 17 21 36 56 78 100 100 100 88 62 91 90 100 95 94 81 67 79 100
100 99 100 96 97 100 100 100 100 96 94 74 36 22 20 13 5 4 4 4 5 5 9 16 14 22 20 18 31 20 8 76 100 100 98 24 71 61 90 98 100 100 99 98 100
98 100 99 100 100 100 99 99 87 72 98 96 88 44 17 5 5 5 6 5 5 7 11 12 21 25 18 34 33 16 16 93 100 100 100 88 44 100 68 71 86 100 98 100 100
40 96 100 97 100 98 94 83 72 100 96 35 11 7 6 6 7 4 7 9 11 12 17 26 28 30 34 53 53 46 63 62 47 68 100 100 88 100 100 94 86 95 100 100 100

GFSSW_500_rhum_162.txt.gz
RH
8 10 18 22 33 33 29 36 37 19 17 27 27 12 9 8 14 15 16 19 25 30 30 32 31 27 25 24 28 27 21 19 51 78 71 65 25 39 28 28 35 32 31 38 37
14 13 10 34 41 46 38 42 46 49 40 32 30 16 20 25 25 16 18 24 30 31 28 29 27 27 34 35 32 28 25 25 30 77 71 36 31 32 34 38 36 35 37 42 44
36 49 45 27 33 47 44 37 44 52 43 35 24 15 23 25 31 33 34 42 49 57 50 45 43 43 41 37 36 34 32 31 30 34 35 35 41 32 38 32 35 44 46 46 46
36 49 54 54 40 52 51 39 43 53 48 24 15 16 20 31 42 51 50 49 49 54 54 50 50 49 45 37 34 41 42 36 40 34 46 48 32 36 43 35 36 41 46 53 56
59 62 64 62 58 59 55 40 46 57 54 32 24 29 36 43 45 52 59 59 58 52 48 47 48 52 47 39 38 38 32 26 40 37 45 42 47 32 41 39 39 39 41 46 51
78 83 82 74 69 67 59 38 56 61 63 59 53 50 49 46 46 43 49 55 50 48 46 45 44 52 53 46 40 32 31 30 26 22 31 39 48 35 31 43 30 30 34 40 46
82 81 88 82 70 70 60 44 68 66 66 66 62 55 52 50 42 41 46 47 53 51 48 44 40 44 50 50 44 40 37 34 30 27 25 19 30 26 28 36 27 19 24 35 44
77 74 82 83 77 71 63 58 70 74 71 69 62 50 44 42 39 35 35 39 52 46 39 40 41 42 45 51 50 47 44 39 36 33 29 26 30 29 18 41 47 36 36 39 45
92 87 78 76 79 81 75 83 89 86 82 77 72 54 40 43 41 40 41 39 32 39 36 30 30 33 39 51 56 55 50 50 46 43 40 32 34 26 26 34 43 49 48 47 45
94 100 88 77 86 80 82 82 86 83 71 80 72 64 44 49 52 52 50 42 43 40 39 34 28 26 27 28 36 56 63 75 58 58 40 43 39 36 32 30 36 38 43 45 45
100 100 96 100 81 90 91 89 92 72 80 92 65 69 50 47 55 51 54 55 46 41 44 42 38 32 29 28 28 28 34 60 61 59 54 53 52 51 39 31 32 37 41 45 47
96 99 100 98 100 95 97 99 85 94 76 86 78 70 71 60 67 63 56 56 51 48 48 48 43 42 38 35 34 33 34 34 42 54 66 50 37 56 54 38 38 45 37 31 30
97 95 96 95 97 100 100 100 98 91 73 74 74 71 75 67 72 74 63 66 62 50 51 48 44 42 42 42 42 42 41 39 39 36 34 33 29 36 40 48 33 39 44 46 46
96 95 90 91 89 98 98 97 100 91 80 68 73 70 71 70 61 71 68 61 60 53 53 49 49 48 46 46 46 44 44 43 42 40 36 51 37 51 72 100 41 38 55 43 38
95 99 98 95 97 98 97 98 97 94 84 76 53 68 66 70 62 63 67 59 57 54 49 44 43 42 41 41 39 38 38 38 37 36 37 36 83 30 47 72 94 64 59 70 53
96 98 98 98 98 96 99 97 97 95 76 74 61 66 68 70 69 64 63 60 54 50 47 46 46 45 45 49 45 38 36 28 26 23 30 33 26 27 26 28 71 76 48 62 57
76 84 92 94 96 99 98 98 98 81 79 78 67 68 76 79 77 71 66 62 63 67 67 61 57 56 53 47 41 36 30 30 27 20 28 30 42 69 87 66 83 100 80 56 65
66 64 76 87 88 100 98 99 90 81 89 94 73 84 89 84 80 75 72 73 70 66 64 61 58 50 42 39 41 34 28 25 27 26 24 25 24 25 76 93 94 100 99 100 94
84 92 88 87 100 100 97 95 76 98 100 92 78 85 95 92 86 78 79 84 80 74 61 62 51 40 42 39 36 33 27 20 18 16 15 18 16 18 100 60 39 48 78 97 84
49 95 100 97 100 100 99 79 83 99 100 98 100 100 99 96 90 86 84 82 78 76 65 52 46 32 31 32 28 20 17 15 14 42 72 86 47 88 100 100 72 81 100 100 100
46 83 90 100 100 100 84 82 98 86 92 95 100 98 99 100 93 82 81 88 70 70 62 42 40 31 30 28 18 16 11 41 80 70 89 79 29 54 61 81 87 100 100 100 100
41 85 88 100 100 96 80 96 100 91 100 100 100 98 97 100 98 90 89 87 72 61 30 18 28 30 18 9 8 11 12 15 41 29 71 58 31 71 100 80 100 80 83 94 87
84 75 91 100 96 89 91 100 100 92 98 100 100 100 97 100 100 93 84 57 41 44 27 21 19 16 18 12 13 17 15 20 59 100 38 70 29 58 59 71 77 56 57 77 63
100 73 72 99 100 99 100 100 99 92 100 100 100 100 100 100 100 89 72 29 22 29 29 17 9 6 8 10 16 16 19 21 38 79 96 91 86 44 100 100 87 69 87 94 100
97 76 80 89 86 100 100 100 100 91 100 100 99 100 100 98 98 78 28 22 32 21 6 14 22 7 8 10 12 15 20 18 18 32 83 23 66 74 100 73 95 68 78 73 79
92 70 85 89 100 100 98 97 100 100 100 100 99 100 99 90 41 16 27 45 44 15 20 9 7 9 8 13 20 23 21 19 35 62 82 85 38 100 97 78 74 64 75 67 78
100 94 81 100 100 100 90 100 100 100 100 100 96 90 94 94 77 67 68 18 18 16 6 9 10 12 14 26 29 19 27 56 70 57 60 77 52 74 68 68 67 89 99 79 62